GW4077 Weather Reports


Display with metric or nautical units.
time (UTC)temp
F
wind
direction
speed
MPH
gust
MPH
rain 1hr
in
rain 24hr
in
rain mn
in
humidity
%
barometer
mb
20260503040443 56 0.0 0.0 0.00 0.00 0.00 61 1016.2
20260503035424 57 0.0 0.0 0.00 0.00 0.00 60 1016.0
20260503034446 58 0.0 0.0 0.00 0.00 0.00 55 1015.8
20260503033423 58 314 4.0 5.0 0.00 0.00 0.00 57 1016.0
20260503032423 59 0.0 0.0 0.00 0.00 0.00 55 1015.8
20260503031422 60 0.0 0.0 0.00 0.00 0.00 52 1015.7
20260503030422 62 0.0 1.0 0.00 0.00 0.00 49 1015.6
20260503025444 63 78 1.0 2.0 0.00 0.00 0.00 48 1015.8
20260503024424 64 0.0 0.0 0.00 0.00 0.00 45 1015.4
20260503023422 66 0.0 0.0 0.00 0.00 0.00 41 1015.5
20260503022443 67 0.0 0.0 0.00 0.00 0.00 43 1015.4
20260503021423 68 134 0.0 1.0 0.00 0.00 0.00 36 1015.5
20260503020420 70 59 1.0 2.0 0.00 0.00 0.00 34 1015.4
20260503015421 70 0.0 0.0 0.00 0.00 0.00 35 1015.5
20260503014423 69 140 0.0 1.0 0.00 0.00 0.00 36 1015.7
20260503013421 68 0.0 0.0 0.00 0.00 0.00 39 1015.7
20260503012442 69 226 1.0 2.0 0.00 0.00 0.00 37 1015.5
20260503011422 69 172 2.0 2.0 0.00 0.00 0.00 36 1015.6
20260503010429 71 147 3.0 3.0 0.00 0.00 0.00 33 1015.7
20260503005421 73 168 4.0 5.0 0.00 0.00 0.00 34 1015.6
20260503004421 73 186 5.0 6.0 0.00 0.00 0.00 29 1015.7
20260503003444 76 167 4.0 4.0 0.00 0.00 0.00 27 1015.9
20260503002422 73 162 1.0 2.0 0.00 0.00 0.00 30 1015.9
20260503001422 72 179 3.0 3.0 0.00 0.00 0.00 40 1015.8
20260503000430 73 0.0 1.0 0.00 0.00 0.00 28 1015.8
20260502235429 75 2.0 3.0 0.00 0.00 0.00 26 1016.0
20260502234421 75 131 2.0 2.0 0.00 0.00 0.00 28 1015.9
20260502233422 74 83 2.0 3.0 0.00 0.00 0.00 32 1016.1
20260502232423 75 79 2.0 3.0 0.00 0.00 0.00 27 1016.2
20260502231422 74 92 1.0 2.0 0.00 0.00 0.00 30 1016.3
20260502230426 74 177 3.0 3.0 0.00 0.00 0.00 36 1016.4
20260502225448 73 161 4.0 5.0 0.00 0.00 0.00 32 1016.5
20260502224429 72 235 1.0 2.0 0.00 0.00 0.00 28 1016.6
20260502223421 73 170 4.0 4.0 0.00 0.00 0.00 31 1016.9
20260502222422 76 158 2.0 3.0 0.00 0.00 0.00 27 1017.0
20260502221423 77 78 2.0 2.0 0.00 0.00 0.00 24 1016.9
20260502220445 80 122 1.0 4.0 0.00 0.00 0.00 22 1017.1
20260502215426 78 115 1.0 2.0 0.00 0.00 0.00 23 1016.9
20260502214427 75 325 2.0 2.0 0.00 0.00 0.00 26 1017.4
20260502213423 77 348 2.0 2.0 0.00 0.00 0.00 25 1017.5
20260502212421 79 319 4.0 4.0 0.00 0.00 0.00 24 1017.5
20260502211422 82 217 1.0 3.0 0.00 0.00 0.00 22 1017.6
20260502210423 79 79 2.0 3.0 0.00 0.00 0.00 23 1017.7
20260502205424 79 21 7.0 8.0 0.00 0.00 0.00 23 1017.7
20260502204426 82 351 3.0 4.0 0.00 0.00 0.00 22 1018.0
20260502203422 79 187 3.0 3.0 0.00 0.00 0.00 23 1018.1
20260502202422 79 294 3.0 3.0 0.00 0.00 0.00 23 1018.2
20260502201421 74 197 3.0 6.0 0.00 0.00 0.00 27 1018.3
20260502200422 80 55 2.0 4.0 0.00 0.00 0.00 27 1018.6
20260502195423 81 332 1.0 2.0 0.00 0.00 0.00 24 1018.7
20260502194424 78 212 1.0 1.0 0.00 0.00 0.00 26 1018.8
20260502193422 77 186 4.0 4.0 0.00 0.00 0.00 26 1018.9
20260502192503 76 351 3.0 4.0 0.00 0.00 0.00 26 1019.1
20260502191423 75 354 3.0 4.0 0.00 0.00 0.00 27 1019.3
20260502190421 74 3 3.0 4.0 0.00 0.00 0.00 30 1019.3
20260502185422 75 310 1.0 1.0 0.00 0.00 0.00 31 1019.5
20260502184444 73 319 5.0 6.0 0.00 0.00 0.00 31 1019.6
20260502183421 75 340 3.0 4.0 0.00 0.00 0.00 29 1019.7
20260502182422 72 187 3.0 4.0 0.00 0.00 0.00 30 1019.6
20260502181443 71 30 5.0 6.0 0.00 0.00 0.00 32 1019.9
20260502180429 71 353 3.0 3.0 0.00 0.00 0.00 34 1020.0
20260502170428 65 346 3.0 4.0 0.00 0.00 0.00 47 1020.4
20260502163442 59 14 3.0 4.0 0.00 0.00 0.00 55 1020.6
20260502162423 58 340 2.0 3.0 0.00 0.00 0.00 57 1020.5
20260502161421 57 18 2.0 4.0 0.00 0.00 0.00 59 1020.5
20260502160426 56 339 5.0 6.0 0.00 0.00 0.00 62 1020.7
20260502151424 51 19 3.0 3.0 0.00 0.00 0.00 67 1020.7
20260502150506 51 337 4.0 4.0 0.00 0.00 0.00 69 1020.6
20260502130423 39 0.0 0.0 0.00 0.00 0.00 86 1019.9
20260502123423 39 313 1.0 2.0 0.00 0.00 0.00 85 1019.6
20260502122422 40 227 1.0 2.0 0.00 0.00 0.00 85 1019.9
20260502121423 39 0.0 0.0 0.00 0.00 0.00 84 1019.7
20260502120422 40 0.0 1.0 0.00 0.00 0.00 82 1019.9
20260502115422 41 180 3.0 3.0 0.00 0.00 0.00 81 1019.9
20260502114446 43 0.0 1.0 0.00 0.00 0.00 76 1019.7
20260502113421 43 328 1.0 2.0 0.00 0.00 0.00 76 1019.5
20260502112423 42 323 2.0 3.0 0.00 0.00 0.00 78 1019.7
20260502111422 42 339 2.0 2.0 0.00 0.00 0.00 79 1019.7
20260502110429 41 0.0 0.0 0.00 0.00 0.00 81 1019.5
20260502105420 41 0.0 0.0 0.00 0.00 0.00 82 1019.5
20260502104423 42 315 3.0 3.0 0.00 0.00 0.00 81 1019.6
20260502103424 42 205 1.0 2.0 0.00 0.00 0.00 80 1019.6
20260502102421 42 330 1.0 2.0 0.00 0.00 0.00 80 1019.4
20260502101423 44 178 2.0 2.0 0.00 0.00 0.00 79 1019.0
20260502100428 44 20 1.0 2.0 0.00 0.00 0.00 79 1018.9
20260502091421 43 10 1.0 2.0 0.00 0.00 0.00 86 1018.8
20260502090427 43 24 1.0 2.0 0.00 0.00 0.00 85 1018.7
20260502071422 47 340 2.0 3.0 0.00 0.00 0.00 82 1018.6
20260502070424 48 359 2.0 3.0 0.00 0.00 0.00 78 1018.6
20260502065424 47 311 3.0 3.0 0.00 0.00 0.00 79 1018.4
20260502064428 48 0.0 0.0 0.00 0.00 0.00 76 1018.6
20260502063422 48 44 3.0 4.0 0.00 0.00 0.00 76 1018.4
20260502062422 49 1.0 2.0 0.00 0.00 0.00 73 1018.3
20260502061441 49 326 3.0 3.0 0.00 0.00 0.00 72 1018.2
20260502060422 50 0.0 0.0 0.00 0.00 0.00 69 1018.1
20260502055424 51 335 2.0 3.0 0.00 0.00 0.00 69 1018.1
20260502054425 51 343 0.0 2.0 0.00 0.00 0.00 74 1018.0
20260502053422 51 334 3.0 3.0 0.00 0.00 0.00 69 1018.1
20260502052424 52 345 2.0 2.0 0.00 0.00 0.00 67 1017.9
20260502051422 52 0.0 0.0 0.00 0.00 0.00 65 1018.0
20260502050420 54 0.0 0.0 0.00 0.00 0.00 63 1017.8
20260502045422 55 0.0 0.0 0.00 0.00 0.00 59 1017.8
20260502044423 55 5 1.0 2.0 0.00 0.00 0.00 59 1017.6
20260502043425 55 341 2.0 3.0 0.00 0.00 0.00 57 1017.6
20260502042428 55 343 2.0 2.0 0.00 0.00 0.00 57 1017.6
20260502041422 56 0.0 0.0 0.00 0.00 0.00 56 1017.3